IAVONS21 Weather Reports


Display with metric or nautical units.
time (UTC)temp
F
wind
direction
speed
MPH
gust
MPH
rain 1hr
in
rain 24hr
in
rain mn
in
humidity
%
barometer
mb
20260504050505 53 260 11.0 19.0 0.00 0.33 0.19 52 1013.4
20260504045511 53 277 9.0 18.0 0.00 0.33 0.19 55 1013.3
20260504045008 53 276 10.0 22.0 0.00 0.33 0.19 53 1013.3
20260504044504 53 261 14.0 22.0 0.00 0.33 0.19 52 1013.2
20260504044003 54 268 11.0 22.0 0.00 0.33 0.19 53 1013.2
20260504043503 54 272 16.0 23.0 0.00 0.33 0.19 53 1013.1
20260504043004 54 291 13.0 24.0 0.00 0.33 0.19 55 1013.2
20260504042504 54 268 14.0 24.0 0.00 0.33 0.19 58 1013.2
20260504042003 54 270 12.0 21.0 0.00 0.33 0.19 59 1013.2
20260504041510 55 292 12.0 21.0 0.00 0.33 0.19 59 1013.2
20260504041003 55 251 13.0 20.0 0.00 0.33 0.19 56 1013.2
20260504040507 56 279 12.0 20.0 0.00 0.33 0.19 58 1013.2
20260504040017 56 257 9.0 18.0 0.00 0.33 0.19 59 1013.0
20260504035510 56 281 11.0 23.0 0.00 0.33 0.19 61 1013.0
20260504035009 56 261 10.0 23.0 0.00 0.33 0.19 63 1012.9
20260504034521 56 294 12.0 22.0 0.00 0.33 0.19 63 1012.8
20260504034011 56 276 13.0 22.0 0.00 0.33 0.19 66 1012.8
20260504033502 56 264 8.0 19.0 0.00 0.33 0.19 68 1013.0
20260504033024 56 279 12.0 19.0 0.00 0.33 0.19 68 1013.0
20260504032503 57 283 10.0 19.0 0.00 0.33 0.19 67 1013.1
20260504032006 56 266 8.0 19.0 0.00 0.33 0.19 69 1013.0
20260504031507 56 259 13.0 25.0 0.00 0.33 0.19 67 1012.9
20260504031008 56 264 13.0 25.0 0.00 0.33 0.19 67 1013.2
20260504030508 57 329 11.0 20.0 0.00 0.33 0.19 66 1013.2
20260504030012 57 271 10.0 17.0 0.00 0.33 0.19 67 1013.2
20260504025508 57 265 7.0 20.0 0.00 0.33 0.19 69 1013.3
20260504025006 57 341 8.0 20.0 0.00 0.33 0.19 68 1013.4
20260504024518 57 314 10.0 20.0 0.00 0.33 0.19 69 1013.3
20260504024007 57 280 11.0 16.0 0.00 0.33 0.19 68 1013.4
20260504023507 57 327 7.0 13.0 0.00 0.33 0.19 70 1013.5
20260504023020 56 310 3.0 13.0 0.00 0.33 0.19 74 1013.6
20260504022509 56 270 5.0 13.0 0.00 0.33 0.19 74 1013.8
20260504022010 56 263 7.0 12.0 0.00 0.33 0.19 73 1013.6
20260504021504 55 274 5.0 16.0 0.00 0.33 0.19 74 1013.8
20260504021004 55 270 7.0 17.0 0.00 0.33 0.19 73 1013.8
20260504020503 55 328 8.0 17.0 0.00 0.33 0.19 73 1014.0
20260504020008 55 301 9.0 16.0 0.00 0.33 0.19 75 1014.1
20260504015504 55 299 4.0 15.0 0.00 0.33 0.19 78 1014.1
20260504015006 55 278 7.0 15.0 0.00 0.33 0.19 78 1014.2
20260504014513 54 258 7.0 16.0 0.00 0.33 0.19 77 1014.1
20260504014007 54 287 5.0 20.0 0.00 0.33 0.19 79 1014.4
20260504013507 54 316 7.0 20.0 0.00 0.33 0.19 79 1014.5
20260504013024 54 266 6.0 17.0 0.00 0.33 0.19 80 1014.5
20260504012510 53 318 6.0 17.0 0.00 0.33 0.19 80 1014.6
20260504012008 53 327 5.0 19.0 0.00 0.33 0.19 82 1014.8
20260504011527 53 302 8.0 19.0 0.00 0.33 0.19 80 1014.8
20260504011009 53 301 7.0 14.0 0.00 0.33 0.19 82 1014.9
20260504010509 53 282 8.0 16.0 0.00 0.33 0.19 82 1015.1
20260504010008 53 268 8.0 16.0 0.00 0.33 0.19 82 1015.1
20260504005504 53 274 8.0 19.0 0.00 0.33 0.19 82 1014.9
20260504005003 53 261 8.0 19.0 0.00 0.33 0.19 83 1015.1
20260504004510 54 263 7.0 16.0 0.00 0.33 0.19 84 1015.2
20260504004008 54 271 6.0 16.0 0.00 0.33 0.19 85 1015.4
20260504003508 53 321 5.0 11.0 0.00 0.33 0.19 84 1015.5
20260504003016 53 313 4.0 11.0 0.00 0.33 0.19 84 1015.4
20260504002507 53 303 5.0 11.0 0.00 0.33 0.19 84 1015.3
20260504002010 53 313 4.0 12.0 0.00 0.33 0.19 84 1015.3
20260504001524 53 349 4.0 12.0 0.00 0.33 0.19 84 1015.4
20260504001010 53 260 3.0 9.0 0.00 0.33 0.19 84 1015.5
20260504000509 53 313 2.0 8.0 0.00 0.33 0.19 86 1015.5
20260504000049 53 280 3.0 11.0 0.00 0.33 0.19 85 1015.5
20260503235510 53 285 5.0 11.0 0.00 0.33 0.19 84 1015.4
20260503235010 54 302 5.0 13.0 0.01 0.33 0.19 87 1015.5
20260503234511 54 346 4.0 13.0 0.01 0.33 0.19 87 1015.5
20260503234004 54 8 4.0 13.0 0.01 0.33 0.19 87 1015.8
20260503233510 54 289 3.0 13.0 0.01 0.33 0.19 89 1015.7
20260503233016 53 338 5.0 10.0 0.01 0.33 0.19 89 1015.7
20260503232505 53 346 5.0 13.0 0.01 0.33 0.19 90 1015.9
20260503232006 53 335 3.0 13.0 0.01 0.33 0.19 91 1015.8
20260503231516 52 321 6.0 11.0 0.01 0.33 0.19 90 1015.7
20260503231006 52 16 2.0 9.0 0.01 0.33 0.19 90 1015.3
20260503230509 52 295 2.0 9.0 0.00 0.32 0.18 90 1015.9
20260503230024 52 3 2.0 8.0 0.02 0.32 0.18 90 1015.8
20260503225510 52 299 3.0 8.0 0.02 0.32 0.18 89 1015.8
20260503225010 52 6 2.0 9.0 0.01 0.31 0.18 90 1015.8
20260503224526 52 324 3.0 10.0 0.01 0.31 0.18 90 1015.7
20260503224009 51 358 3.0 10.0 0.01 0.31 0.18 90 1015.7
20260503223511 51 334 2.0 10.0 0.01 0.31 0.18 90 1015.5
20260503223035 51 293 5.0 10.0 0.01 0.31 0.18 90 1015.6
20260503222507 51 323 3.0 9.0 0.01 0.31 0.18 90 1015.7
20260503222008 51 314 1.0 9.0 0.01 0.31 0.18 90 1015.7
20260503221517 51 296 3.0 10.0 0.01 0.31 0.18 90 1015.7
20260503221009 52 3 3.0 11.0 0.01 0.31 0.18 89 1015.7
20260503220509 52 330 4.0 11.0 0.01 0.31 0.18 89 1015.5
20260503220020 52 353 3.0 10.0 0.00 0.29 0.16 89 1015.4
20260503215512 52 320 3.0 8.0 0.00 0.29 0.16 90 1015.3
20260503215008 52 324 1.0 8.0 0.00 0.29 0.16 90 1015.3
20260503214527 52 339 2.0 8.0 0.00 0.29 0.16 90 1015.1
20260503214014 52 360 2.0 7.0 0.00 0.29 0.16 91 1015.1
20260503213514 52 14 2.0 8.0 0.00 0.29 0.16 92 1015.2
20260503213024 52 353 1.0 8.0 0.00 0.29 0.16 92 1015.1
20260503212508 51 358 2.0 8.0 0.00 0.29 0.16 92 1015.1
20260503212012 51 357 3.0 10.0 0.00 0.29 0.16 92 1015.1
20260503211527 51 3 3.0 10.0 0.00 0.29 0.16 92 1015.0
20260503211007 51 357 2.0 7.0 0.00 0.29 0.16 92 1015.0
20260503210511 51 302 1.0 8.0 0.00 0.29 0.16 91 1014.9
20260503210020 51 14 3.0 9.0 0.00 0.29 0.16 91 1014.8
20260503205509 51 337 3.0 9.0 0.00 0.29 0.16 91 1014.8
20260503205009 51 360 3.0 7.0 0.00 0.29 0.16 91 1014.8
20260503204522 51 358 2.0 10.0 0.00 0.29 0.16 91 1014.9
20260503204009 52 9 2.0 10.0 0.00 0.29 0.16 91 1014.8
20260503203513 51 358 3.0 9.0 0.00 0.29 0.16 91 1014.8
20260503203038 51 10 4.0 10.0 0.00 0.29 0.16 91 1014.7
20260503202511 51 29 4.0 10.0 0.00 0.29 0.16 91 1014.7
20260503202010 51 10 4.0 10.0 0.00 0.29 0.16 91 1014.6
20260503201532 51 16 4.0 10.0 0.00 0.29 0.16 91 1014.7
20260503201010 51 16 4.0 9.0 0.00 0.29 0.16 91 1014.8
20260503200511 51 33 2.0 6.0 0.00 0.29 0.16 91 1014.8
20260503200026 51 327 2.0 6.0 0.00 0.29 0.16 91 1014.8
20260503195512 51 348 1.0 5.0 0.00 0.29 0.16 90 1014.6
20260503195011 51 306 2.0 7.0 0.00 0.29 0.16 90 1014.6
20260503194522 51 351 2.0 8.0 0.00 0.29 0.16 90 1014.6
20260503194010 51 356 3.0 8.0 0.00 0.29 0.16 90 1014.4
20260503193505 51 353 3.0 9.0 0.00 0.29 0.16 90 1014.5
20260503193008 51 320 2.0 9.0 0.00 0.29 0.16 90 1014.3
20260503192504 51 20 3.0 11.0 0.00 0.29 0.16 90 1014.5
20260503192002 51 344 4.0 11.0 0.00 0.29 0.16 90 1014.3
20260503191510 51 314 3.0 11.0 0.00 0.29 0.16 89 1014.2
20260503191005 51 317 3.0 11.0 0.00 0.29 0.16 90 1014.2
20260503190507 51 10 3.0 9.0 0.00 0.29 0.16 90 1014.3
20260503190012 52 359 4.0 11.0 0.00 0.29 0.16 90 1014.3
20260503185507 52 40 3.0 11.0 0.00 0.29 0.16 90 1014.4
20260503185006 52 359 3.0 10.0 0.00 0.29 0.16 90 1014.3
20260503184519 52 8 3.0 10.0 0.00 0.29 0.16 90 1014.3
20260503184008 52 8 4.0 10.0 0.00 0.29 0.16 90 1014.3
20260503183511 52 336 6.0 11.0 0.00 0.29 0.16 90 1014.3
20260503183028 52 8 6.0 12.0 0.00 0.29 0.16 90 1014.2
20260503182513 52 8 5.0 13.0 0.00 0.29 0.16 90 1014.2
20260503182003 52 31 7.0 16.0 0.00 0.29 0.16 90 1014.2
20260503181505 51 18 7.0 16.0 0.00 0.29 0.16 90 1014.3
20260503181003 51 22 4.0 11.0 0.00 0.29 0.16 89 1014.3
20260503180508 51 8 4.0 11.0 0.00 0.29 0.16 90 1014.2
20260503180022 51 354 3.0 10.0 0.01 0.29 0.16 90 1014.3
20260503175507 51 321 2.0 11.0 0.02 0.29 0.16 90 1014.4
20260503175007 51 359 3.0 15.0 0.03 0.29 0.16 90 1014.5
20260503174516 51 54 5.0 15.0 0.03 0.29 0.16 90 1014.4
20260503174010 51 11 4.0 14.0 0.03 0.29 0.16 90 1014.5
20260503173508 51 355 6.0 14.0 0.03 0.29 0.16 90 1014.6
20260503173038 50 4 7.0 14.0 0.03 0.29 0.16 90 1014.6
20260503172510 50 16 3.0 7.0 0.03 0.29 0.16 90 1014.5
20260503172009 50 10 2.0 8.0 0.03 0.29 0.16 89 1014.5
20260503171533 50 339 3.0 8.0 0.03 0.29 0.15 89 1014.8
20260503171009 50 300 1.0 5.0 0.03 0.29 0.15 89 1014.8
20260503170509 50 2 1.0 9.0 0.04 0.29 0.15 88 1014.4
20260503151003 52 342 5.0 13.0 0.05 0.19 0.06 92 1016.2
20260503150503 52 299 4.0 11.0 0.05 0.18 0.05 92 1016.3
20260503131005 53 4 3.0 10.0 0.02 0.07 0.07 91 1017.0
20260503130502 53 338 4.0 10.0 0.02 0.07 0.07 91 1017.0
20260503110507 54 329 5.0 14.0 0.01 0.01 0.01 90 1017.7
20260503090507 56 333 5.0 11.0 0.00 0.00 0.00 85 1018.1
20260503081522 56 347 2.0 9.0 0.00 0.00 0.00 84 1017.9
20260503081010 56 317 5.0 10.0 0.00 0.00 0.00 84 1017.8
20260503080508 56 15 4.0 10.0 0.00 0.00 0.00 83 1017.8
20260503072510 57 341 2.0 11.0 0.00 0.00 0.00 81 1017.8
20260503072010 57 295 4.0 10.0 0.00 0.00 0.00 81 1017.7
20260503071517 57 320 3.0 18.0 0.00 0.00 0.00 80 1017.6
20260503071007 57 274 5.0 18.0 0.00 0.00 0.00 80 1017.7
20260503070507 57 303 4.0 18.0 0.00 0.00 0.00 80 1017.8